FW9086 Weather Reports


Display with metric or nautical units.
time (UTC)temp
F
wind
direction
speed
MPH
gust
MPH
rain 1hr
in
rain 24hr
in
rain mn
in
humidity
%
barometer
mb
20260903154154 90 253 3.0 3.0 0.00 0.00 0.00 68 1014.5
20260903153649 90 224 1.0 2.0 0.00 0.00 0.00 67 1014.4
20260903153145 89 231 1.0 1.0 0.00 0.00 0.00 71 1014.8
20260903152641 89 227 1.0 2.0 0.00 0.00 0.00 72 1014.5
20260903152137 89 193 1.0 2.0 0.00 0.00 0.00 69 1014.6
20260903151637 88 226 2.0 2.0 0.00 0.00 0.00 70 1014.6
20260903151131 89 196 1.0 2.0 0.00 0.00 0.00 73 1014.6
20260903150631 89 221 1.0 2.0 0.00 0.00 0.00 70 1014.7
20260903150127 88 176 1.0 1.0 0.00 0.00 0.00 73 1014.5
20260903145626 88 198 1.0 2.0 0.00 0.00 0.00 71 1014.7
20260903145121 87 188 1.0 1.0 0.00 0.00 0.00 72 1014.5
20260903144620 87 223 2.0 2.0 0.00 0.00 0.00 72 1014.6
20260903144116 86 169 0.0 1.0 0.00 0.00 0.00 74 1014.6
20260903143612 86 191 1.0 1.0 0.00 0.00 0.00 74 1014.3
20260903143108 85 226 1.0 2.0 0.00 0.00 0.00 74 1014.5
20260903142603 85 220 1.0 2.0 0.00 0.00 0.00 77 1014.6
20260903142100 84 169 0.0 1.0 0.00 0.00 0.00 77 1014.4
20260903141555 84 164 0.0 1.0 0.00 0.00 0.00 78 1014.6
20260903141050 83 194 1.0 1.0 0.00 0.00 0.00 79 1014.4
20260903140546 83 243 2.0 2.0 0.00 0.00 0.00 78 1014.5
20260903140041 82 198 1.0 1.0 0.00 0.00 0.00 80 1014.5
20260903135536 82 166 0.0 0.0 0.00 0.00 0.00 84 1014.8
20260903135031 82 205 1.0 1.0 0.00 0.00 0.00 83 1014.7
20260903134531 81 219 2.0 2.0 0.00 0.00 0.00 82 1014.8
20260903134027 81 188 1.0 2.0 0.00 0.00 0.00 81 1014.9
20260903133524 80 240 2.0 3.0 0.00 0.00 0.00 84 1014.7
20260903133019 80 225 1.0 2.0 0.00 0.00 0.00 84 1014.8
20260903132514 80 225 1.0 1.0 0.00 0.00 0.00 86 1014.6
20260903132009 79 225 2.0 2.0 0.00 0.00 0.00 84 1014.8
20260903131504 79 199 1.0 1.0 0.00 0.00 0.00 87 1014.9
20260903131003 78 180 0.0 0.0 0.00 0.00 0.00 86 1014.9
20260903130458 78 192 0.0 0.0 0.00 0.00 0.00 87 1015.2
20260903125957 78 177 0.0 0.0 0.00 0.00 0.00 88 1015.2
20260903125456 78 200 0.0 0.0 0.00 0.00 0.00 90 1014.9
20260903124951 77 195 0.0 0.0 0.00 0.00 0.00 90 1015.2
20260903124446 76 176 0.0 0.0 0.00 0.00 0.00 92 1015.1
20260903123945 76 197 0.0 0.0 0.00 0.00 0.00 93 1015.1
20260903123440 76 170 0.0 0.0 0.00 0.00 0.00 94 1014.9
20260903122938 75 175 0.0 0.0 0.00 0.00 0.00 94 1015.1
20260903122433 75 170 0.0 0.0 0.00 0.00 0.00 95 1015.0
20260903121932 75 175 0.0 0.0 0.00 0.00 0.00 95 1014.9
20260903121427 75 172 0.0 0.0 0.00 0.00 0.00 96 1014.9
20260903120923 74 170 0.0 0.0 0.00 0.00 0.00 96 1015.0
20260903120422 74 175 0.0 0.0 0.00 0.00 0.00 96 1014.9
20260903115921 74 196 0.0 0.0 0.00 0.00 0.00 96 1014.9
20260903115421 74 183 0.0 0.0 0.00 0.00 0.00 96 1014.9
20260903114921 74 185 0.0 0.0 0.00 0.00 0.00 96 1014.9
20260903114416 74 175 0.0 0.0 0.00 0.00 0.00 96 1014.9
20260903113912 74 168 0.0 0.0 0.00 0.00 0.00 96 1014.7
20260903113408 74 174 0.0 0.0 0.00 0.00 0.00 96 1014.8
20260903112903 74 176 0.0 0.0 0.00 0.00 0.00 97 1014.6
20260903112359 74 170 0.0 0.0 0.00 0.00 0.00 97 1014.5
20260903111858 74 165 0.0 0.0 0.00 0.00 0.00 97 1014.6
20260903111357 74 168 0.0 0.0 0.00 0.00 0.00 97 1014.6
20260903110854 74 165 0.0 0.0 0.00 0.00 0.00 97 1014.7
20260903110349 74 169 0.0 0.0 0.00 0.00 0.00 97 1014.4
20260903105843 74 166 0.0 0.0 0.00 0.00 0.00 96 1014.5
20260903105338 74 163 0.0 0.0 0.00 0.00 0.00 96 1014.5
20260903104832 74 161 0.0 0.0 0.00 0.00 0.00 96 1014.6
20260903104327 74 161 0.0 0.0 0.00 0.00 0.00 96 1014.5
20260903103824 74 161 0.0 0.0 0.00 0.00 0.00 95 1014.3
20260903103320 74 161 0.0 0.0 0.00 0.00 0.00 95 1014.4
20260903102816 74 161 0.0 0.0 0.00 0.00 0.00 95 1014.3
20260903102316 75 161 0.0 0.0 0.00 0.00 0.00 95 1014.4
20260903101815 75 167 0.0 0.0 0.00 0.00 0.00 95 1014.3
20260903101310 75 178 0.0 0.0 0.00 0.00 0.00 95 1014.3
20260903100806 75 169 0.0 0.0 0.00 0.00 0.00 94 1014.4
20260903100300 75 170 0.0 0.0 0.00 0.00 0.00 94 1014.1
20260903095757 75 171 0.0 0.0 0.00 0.00 0.00 94 1014.4
20260903095251 75 161 0.0 0.0 0.00 0.00 0.00 93 1014.2
20260903094747 76 162 0.0 0.0 0.00 0.00 0.00 93 1014.5
20260903094242 76 162 0.0 0.0 0.00 0.00 0.00 92 1014.2
20260903093737 76 169 0.0 0.0 0.00 0.00 0.00 92 1014.2
20260903093233 76 173 0.0 1.0 0.00 0.00 0.00 92 1014.2
20260903092732 76 177 0.0 0.0 0.00 0.00 0.00 91 1014.1
20260903092227 76 178 0.0 1.0 0.00 0.00 0.00 92 1014.3
20260903091726 77 162 0.0 0.0 0.00 0.00 0.00 91 1014.0
20260903091221 77 170 0.0 0.0 0.00 0.00 0.00 90 1014.3
20260903090716 77 186 1.0 1.0 0.00 0.00 0.00 90 1014.0
20260903090214 77 182 1.0 1.0 0.00 0.00 0.00 89 1014.1
20260903085713 77 204 0.0 1.0 0.00 0.00 0.00 89 1014.3
20260903085209 77 180 0.0 1.0 0.00 0.00 0.00 89 1014.0
20260903084707 77 207 1.0 1.0 0.00 0.00 0.00 89 1014.1
20260903084201 77 193 1.0 1.0 0.00 0.00 0.00 88 1014.1
20260903083658 77 185 1.0 1.0 0.00 0.00 0.00 88 1014.2
20260903083157 78 186 1.0 1.0 0.00 0.00 0.00 88 1014.2
20260903082651 78 204 1.0 1.0 0.00 0.00 0.00 88 1014.2
20260903082148 78 212 1.0 1.0 0.00 0.00 0.00 87 1014.3
20260903081642 78 188 1.0 1.0 0.00 0.00 0.00 87 1014.4
20260903081138 78 185 1.0 1.0 0.00 0.00 0.00 87 1014.0
20260903080634 78 194 1.0 1.0 0.00 0.00 0.00 86 1014.2
20260903080132 78 199 1.0 1.0 0.00 0.00 0.00 86 1014.0
20260903075630 79 190 1.0 1.0 0.00 0.00 0.00 86 1014.0
20260903075126 79 195 1.0 1.0 0.00 0.00 0.00 86 1014.1
20260903074625 79 227 2.0 2.0 0.00 0.00 0.00 85 1013.9
20260903074120 79 244 2.0 2.0 0.00 0.00 0.00 86 1014.0
20260903073615 79 218 1.0 1.0 0.00 0.00 0.00 86 1014.0
20260903073111 79 194 1.0 1.0 0.00 0.00 0.00 87 1014.1
20260903072607 79 192 1.0 1.0 0.00 0.00 0.00 87 1013.9
20260903072103 79 189 1.0 1.0 0.00 0.00 0.00 87 1013.8
20260903071559 79 191 1.0 1.0 0.00 0.00 0.00 87 1014.1
20260903071059 79 214 1.0 1.0 0.00 0.00 0.00 87 1014.2
20260903070559 78 219 1.0 2.0 0.00 0.00 0.00 87 1014.0
20260903070055 78 188 0.0 1.0 0.00 0.00 0.00 88 1014.1
20260903065554 79 179 1.0 1.0 0.00 0.00 0.00 88 1014.2
20260903065049 78 178 1.0 1.0 0.00 0.00 0.00 87 1014.1
20260903064549 78 183 0.0 1.0 0.00 0.00 0.00 88 1014.1
20260903064044 78 191 0.0 0.0 0.00 0.00 0.00 89 1014.1
20260903063539 78 177 0.0 0.0 0.00 0.00 0.00 90 1014.0
20260903063035 78 162 0.0 0.0 0.00 0.00 0.00 90 1014.2
20260903062530 78 169 0.0 0.0 0.00 0.00 0.00 90 1013.9
20260903062025 78 170 0.0 0.0 0.00 0.00 0.00 90 1014.1
20260903061521 79 164 0.0 0.0 0.00 0.00 0.00 89 1014.0
20260903061020 79 176 0.0 0.0 0.00 0.00 0.00 89 1014.1
20260903060520 79 171 0.0 0.0 0.00 0.00 0.00 88 1014.2
20260903060015 79 178 0.0 0.0 0.00 0.00 0.00 88 1014.1
20260903055512 80 188 1.0 1.0 0.00 0.00 0.00 87 1014.0
20260903055012 79 177 0.0 0.0 0.00 0.00 0.00 87 1014.0
20260903054507 79 176 0.0 0.0 0.00 0.00 0.00 87 1014.1
20260903054003 79 177 0.0 0.0 0.00 0.00 0.00 88 1014.1
20260903053503 79 190 0.0 1.0 0.00 0.00 0.00 89 1014.0
20260903052959 79 176 0.0 0.0 0.00 0.00 0.00 90 1014.0
20260903052454 79 180 0.0 0.0 0.00 0.00 0.00 91 1014.0
20260903051950 79 165 0.0 0.0 0.00 0.00 0.00 91 1013.8
20260903051445 79 161 0.0 0.0 0.00 0.00 0.00 91 1013.8
20260903050941 79 163 0.0 0.0 0.00 0.00 0.00 92 1013.9
20260903050439 79 162 0.0 0.0 0.00 0.00 0.00 92 1013.9
20260903045934 78 160 0.0 0.0 0.00 0.00 0.00 91 1013.7
20260903045430 78 157 0.0 0.0 0.00 0.00 0.00 92 1013.9
20260903044926 78 161 0.0 0.0 0.00 0.00 0.00 91 1013.9
20260903044426 78 160 0.0 0.0 0.00 0.00 0.00 91 1013.8
20260903043923 79 159 0.0 0.0 0.00 0.00 0.00 91 1014.0
20260903043419 79 158 0.0 0.0 0.00 0.00 0.00 91 1013.8
20260903042917 79 162 0.0 0.0 0.00 0.00 0.00 90 1013.8
20260903042413 79 162 0.0 0.0 0.00 0.00 0.00 90 1013.9
20260903041908 79 163 0.0 0.0 0.00 0.00 0.00 89 1013.7
20260903041404 79 163 0.0 0.0 0.00 0.00 0.00 89 1013.7
20260903040900 79 160 0.0 0.0 0.00 0.00 0.00 89 1013.6
20260903040359 79 162 0.0 0.0 0.00 0.00 0.00 89 1013.7
20260903035855 79 158 0.0 0.0 0.00 0.00 0.00 89 1013.8
20260903035350 79 160 0.0 0.0 0.00 0.00 0.00 89 1013.6
20260903034845 79 160 0.0 0.0 0.00 0.00 0.00 89 1013.6
20260903034341 79 161 0.0 0.0 0.00 0.00 0.00 88 1013.6
20260903033836 80 162 0.0 0.0 0.00 0.00 0.00 88 1013.5
20260903033331 80 156 0.0 0.0 0.00 0.00 0.00 88 1013.6
20260903032830 80 169 0.0 0.0 0.00 0.00 0.00 88 1013.7
20260903032326 80 160 0.0 0.0 0.00 0.00 0.00 88 1013.8
20260903031821 80 156 0.0 0.0 0.00 0.00 0.00 88 1013.9
20260903031321 80 157 0.0 0.0 0.00 0.00 0.00 88 1013.9
20260903030817 80 158 0.0 0.0 0.00 0.00 0.00 88 1013.8
20260903030312 80 159 0.0 0.0 0.00 0.00 0.00 88 1013.8
20260903025808 80 163 0.0 0.0 0.00 0.00 0.00 88 1013.8
20260903025305 80 163 0.0 0.0 0.00 0.00 0.00 87 1013.8
20260903024758 80 158 0.0 0.0 0.00 0.00 0.00 87 1014.0
20260903024257 81 160 0.0 0.0 0.00 0.00 0.00 87 1014.0
20260903023753 81 157 0.0 0.0 0.00 0.00 0.00 87 1014.0
20260903023249 81 160 0.0 0.0 0.00 0.00 0.00 86 1014.0
20260903022749 81 160 0.0 0.0 0.00 0.00 0.00 86 1013.9
20260903022247 81 160 0.0 0.0 0.00 0.00 0.00 86 1014.2
20260903021747 81 162 0.0 0.0 0.00 0.00 0.00 86 1013.8
20260903021243 81 161 0.0 0.0 0.00 0.00 0.00 86 1014.2
20260903020742 81 159 0.0 0.0 0.00 0.00 0.00 85 1013.9
20260903020237 82 159 0.0 0.0 0.00 0.00 0.00 85 1013.7
20260903015732 82 160 0.0 0.0 0.00 0.00 0.00 85 1013.8
20260903015228 82 160 0.0 0.0 0.00 0.00 0.00 85 1013.8
20260903014723 82 160 0.0 0.0 0.00 0.00 0.00 85 1013.8
20260903014223 82 155 0.0 0.0 0.00 0.00 0.00 85 1013.7
20260903013718 82 160 0.0 0.0 0.00 0.00 0.00 84 1013.8
20260903013217 82 162 0.0 0.0 0.00 0.00 0.00 84 1013.8
20260903012716 83 158 0.0 0.0 0.00 0.00 0.00 84 1013.4
20260903012215 83 159 0.0 0.0 0.00 0.00 0.00 83 1013.4
20260903011710 83 158 0.0 0.0 0.00 0.00 0.00 83 1013.7
20260903011204 83 160 0.0 0.0 0.00 0.00 0.00 83 1013.6
20260903010659 83 163 0.0 0.0 0.00 0.00 0.00 83 1013.6
20260903010159 83 154 0.0 0.0 0.00 0.00 0.00 82 1013.6
20260903005653 83 160 0.0 0.0 0.00 0.00 0.00 81 1013.3
20260903005148 83 161 0.0 0.0 0.00 0.00 0.00 81 1013.4
20260903004643 84 162 0.0 0.0 0.00 0.00 0.00 80 1013.3
20260903004138 84 160 0.0 0.0 0.00 0.00 0.00 79 1013.3
20260903003634 84 162 0.0 0.0 0.00 0.00 0.00 79 1013.4
20260903003129 84 163 0.0 0.0 0.00 0.00 0.00 78 1013.2
20260903002624 84 160 0.0 0.0 0.00 0.00 0.00 78 1013.4
20260903002118 84 160 0.0 0.0 0.00 0.00 0.00 78 1013.3
20260903001613 85 162 0.0 0.0 0.00 0.00 0.00 77 1013.3
20260903001107 85 164 0.0 0.0 0.00 0.00 0.00 76 1013.3
20260903000603 85 158 0.0 0.0 0.00 0.00 0.00 76 1013.4
20260902235601 86 158 0.0 0.0 0.00 0.00 0.00 75 1013.2
20260902235056 86 159 0.0 0.0 0.00 0.00 0.00 75 1013.3
20260902234550 86 160 0.0 0.0 0.00 0.00 0.00 74 1013.3
20260902234049 87 158 0.0 0.0 0.00 0.00 0.00 73 1013.3
20260902233544 87 154 0.0 0.0 0.00 0.00 0.00 73 1013.2
20260902233038 87 158 0.0 0.0 0.00 0.00 0.00 72 1013.4
20260902232537 87 163 0.0 0.0 0.00 0.00 0.00 72 1013.5
20260902232032 88 160 0.0 0.0 0.00 0.00 0.00 72 1013.4
20260902231527 87 171 0.0 0.0 0.00 0.00 0.00 73 1013.3
20260902231027 88 181 0.0 0.0 0.00 0.00 0.00 73 1013.3
20260902230521 88 188 1.0 1.0 0.00 0.00 0.00 71 1013.4
20260902230021 88 202 1.0 1.0 0.00 0.00 0.00 70 1013.4
20260902225516 88 177 2.0 2.0 0.00 0.00 0.00 71 1013.4
20260902225016 88 180 0.0 1.0 0.00 0.00 0.00 72 1013.3
20260902224514 89 179 0.0 0.0 0.00 0.00 0.00 71 1013.4
20260902224011 89 180 1.0 1.0 0.00 0.00 0.00 71 1013.2
20260902223507 89 155 0.0 0.0 0.00 0.00 0.00 71 1013.4
20260902223006 89 162 0.0 0.0 0.00 0.00 0.00 71 1013.5
20260902222504 89 175 0.0 0.0 0.00 0.00 0.00 70 1013.5
20260902221958 90 176 0.0 1.0 0.00 0.00 0.00 69 1013.6
20260902221457 90 204 2.0 2.0 0.00 0.00 0.00 67 1013.4
20260902220954 90 218 3.0 3.0 0.00 0.00 0.00 67 1013.6
20260902220454 90 227 2.0 2.0 0.00 0.00 0.00 66 1013.4
20260902215948 90 167 1.0 1.0 0.00 0.00 0.00 67 1013.5
20260902215444 91 203 2.0 2.0 0.00 0.00 0.00 66 1013.5
20260902214940 91 177 1.0 1.0 0.00 0.00 0.00 68 1013.7
20260902214438 91 171 1.0 1.0 0.00 0.00 0.00 65 1013.7
20260902213932 91 245 1.0 2.0 0.00 0.00 0.00 66 1013.4
20260902213429 92 241 2.0 2.0 0.00 0.00 0.00 65 1013.5
20260902212928 93 241 3.0 3.0 0.00 0.00 0.00 64 1013.9
20260902212424 94 220 2.0 2.0 0.00 0.00 0.00 61 1013.7
20260902211920 95 178 0.0 0.0 0.00 0.00 0.00 60 1013.7
20260902211415 95 235 2.0 2.0 0.00 0.00 0.00 61 1013.6
20260902210911 95 250 2.0 2.0 0.00 0.00 0.00 63 1013.8
20260902210410 95 192 1.0 2.0 0.00 0.00 0.00 62 1013.8
20260902205909 94 232 1.0 2.0 0.00 0.00 0.00 63 1013.7
20260902205404 94 222 3.0 3.0 0.00 0.00 0.00 59 1014.0
20260902204900 94 253 3.0 5.0 0.00 0.00 0.00 63 1014.0
20260902204359 93 216 2.0 2.0 0.00 0.00 0.00 62 1013.8
20260902203855 94 187 1.0 1.0 0.00 0.00 0.00 60 1013.9
20260902203350 94 205 2.0 2.0 0.00 0.00 0.00 61 1014.1
20260902202844 95 249 3.0 3.0 0.00 0.00 0.00 60 1014.1
20260902202340 94 247 3.0 3.0 0.00 0.00 0.00 61 1013.9
20260902201836 95 253 3.0 3.0 0.00 0.00 0.00 61 1014.0
20260902201336 94 242 2.0 3.0 0.00 0.00 0.00 60 1014.1
20260902200831 95 278 3.0 3.0 0.00 0.00 0.00 61 1014.1
20260902200326 94 252 3.0 3.0 0.00 0.00 0.00 60 1014.1
20260902195822 93 228 2.0 2.0 0.00 0.00 0.00 63 1014.2
20260902195321 93 193 1.0 1.0 0.00 0.00 0.00 64 1014.2
20260902194816 93 272 2.0 2.0 0.00 0.00 0.00 62 1014.1
20260902194311 93 255 4.0 5.0 0.00 0.00 0.00 64 1014.3
20260902193806 93 205 1.0 1.0 0.00 0.00 0.00 62 1014.4
20260902193302 94 173 1.0 1.0 0.00 0.00 0.00 61 1014.4
20260902192801 95 241 2.0 3.0 0.00 0.00 0.00 65 1014.6
20260902192259 94 198 0.0 1.0 0.00 0.00 0.00 63 1014.6
20260902191759 93 241 2.0 2.0 0.00 0.00 0.00 63 1014.7
20260902191254 93 251 2.0 3.0 0.00 0.00 0.00 65 1014.5
20260902190750 92 294 2.0 2.0 0.00 0.00 0.00 63 1014.6
20260902190249 92 220 2.0 2.0 0.00 0.00 0.00 65 1014.7
20260902185745 92 188 1.0 1.0 0.00 0.00 0.00 67 1014.5
20260902185240 92 248 3.0 3.0 0.00 0.00 0.00 64 1014.6
20260902184736 92 210 2.0 3.0 0.00 0.00 0.00 67 1014.6
20260902184232 92 236 3.0 3.0 0.00 0.00 0.00 67 1014.6
20260902183727 92 254 1.0 2.0 0.00 0.00 0.00 65 1014.8
20260902183223 92 196 1.0 1.0 0.00 0.00 0.00 67 1014.6
20260902182719 91 230 3.0 3.0 0.00 0.00 0.00 66 1014.8
20260902182215 92 184 0.0 1.0 0.00 0.00 0.00 65 1014.8
20260902181712 92 256 3.0 3.0 0.00 0.00 0.00 67 1014.7
20260902181211 92 158 1.0 1.0 0.00 0.00 0.00 66 1015.0
20260902180706 92 225 1.0 2.0 0.00 0.00 0.00 65 1014.9
20260902180201 92 256 2.0 2.0 0.00 0.00 0.00 64 1014.8
20260902175701 92 242 4.0 5.0 0.00 0.00 0.00 65 1014.8
20260902175157 91 223 3.0 3.0 0.00 0.00 0.00 64 1015.1
20260902174654 92 225 4.0 5.0 0.00 0.00 0.00 66 1015.3
20260902174149 92 260 3.0 5.0 0.00 0.00 0.00 64 1015.0
20260902173644 92 283 4.0 5.0 0.00 0.00 0.00 66 1015.1
20260902173139 92 260 1.0 1.0 0.00 0.00 0.00 65 1015.1
20260902172633 92 274 3.0 3.0 0.00 0.00 0.00 66 1015.2
20260902172132 92 240 2.0 2.0 0.00 0.00 0.00 66 1015.3
20260902171628 92 215 4.0 6.0 0.00 0.00 0.00 65 1015.2
20260902171124 91 219 2.0 3.0 0.00 0.00 0.00 63 1015.4
20260902170619 92 259 3.0 3.0 0.00 0.00 0.00 65 1015.5
20260902170115 91 183 2.0 3.0 0.00 0.00 0.00 65 1015.3
20260902165614 91 257 3.0 3.0 0.00 0.00 0.00 64 1015.3
20260902165109 91 254 3.0 3.0 0.00 0.00 0.00 67 1015.4
20260902164604 91 163 1.0 2.0 0.00 0.00 0.00 67 1015.3
20260902164103 91 255 3.0 3.0 0.00 0.00 0.00 65 1015.3
20260902163558 91 254 2.0 2.0 0.00 0.00 0.00 67 1015.4
20260902163056 91 254 3.0 3.0 0.00 0.00 0.00 65 1015.5
20260902162551 91 252 3.0 3.0 0.00 0.00 0.00 65 1015.7
20260902162046 90 182 1.0 1.0 0.00 0.00 0.00 66 1015.6
20260902161546 90 213 2.0 2.0 0.00 0.00 0.00 68 1015.7
20260902161042 89 239 3.0 3.0 0.00 0.00 0.00 69 1015.7
20260902160538 90 233 3.0 3.0 0.00 0.00 0.00 68 1015.7
20260902160033 90 178 2.0 2.0 0.00 0.00 0.00 70 1015.7
20260902155526 89 204 2.0 2.0 0.00 0.00 0.00 69 1015.6
20260902155025 89 261 3.0 3.0 0.00 0.00 0.00 70 1015.6
20260902154521 89 228 3.0 3.0 0.00 0.00 0.00 67 1015.6